Showing default

KUIPER-00176, 65788

Orbit data source: Space-Track

KUIPER-00176, 65788 is a payload satellite owned by Kuiper Systems (US) in LEO that was launched on Thu, 25 Sep 2025 UTC via an ATLAS V 551 launch vehicle from the Air Force Eastern Test Range (AFETR). Payload-class satellites include a variety of spacecraft equipped with specific instruments for various scientific and technological missions. These include communications satellites like Starlink; space stations such as the ISS; scientific satellites like the Hubble; Earth observation satellites from companies like Planet Labs, Umbra, and HawkEye 360; GPS; miniature CubeSats for education and research; and military/defense satellites.

Loading next visibility...
Identifier
65788, 2025-217AC
Orbit
LEO
Country
Flag of USUS
Related business
Manufacturer
Kuiper Systems
Mission
Operational Commercial Communications
Bus & Motor
KUIPER, Unknown motor
Mass
~490 kg wet, ~490 kg dry
Launch date (UTC)
2025-09-25 (9 months ago)
Launch vehicle
ATLAS V 551
Launch site
Air Force Eastern Test Range (AFETR)
Object type
Payload
Rocket body
Debris
Shape & HBR
Box + 2 Pan, 3.4 m
Radar Cross Section
2.326 m², Large (>1 m²)

Expand to show TLE details & history
Last TLE update: 1 day ago

TLE from 1 day ago
0 KUIPER-00176
1 65788U 25217AC  26170.65332778  .00002963  00000-0  41757-3 0  9995
2 65788  51.9018 312.2146 0000449 105.2852 254.8161 14.79928994 39976
Epoch: 2026-06-19T15:40Z
TLE epoch observation values (Epoch: 2026-06-19T15:40:47.520Z)
Latitude
0.00007°
Longitude
169.13744°
Altitude
630.378 km
Speed
7.544 km/s
True Right ascension
20h 48m 51s
True Declination
0° 00' 00"
Sunlit
Object was in full shadow at epoch
Visualization orbit readout
Latitude
Unknown
Longitude
Unknown
Altitude
Unknown
Speed
Unknown
Apparent Right ascension
Unknown
Apparent Declination
Unknown
Sunlit
N/A
Visualization observer readout
Local Sidereal Time
08:32:20
Azimuth
Unknown
Elevation
Unknown
Doppler factor
Unknown
Orbital elements
Apogee altitude
630.314 km
Perigee altitude
629.684 km
Semi-major axis
7,008.136 km
Eccentricity
0.00004
Inclination
51.9018°
RAAN
312.2146°
Arg. of periapsis
105.2852°
True anomaly
254.81113°
Mean anomaly
254.8161°
Eccentric anomaly
254.81362°
Mean motion
3.69947 °/min
Orbital period
97.31 mins
BSTAR
0.00041757
Loading maneuver chart data...
Computing Atmospheric mass density...
Loading historical data...
Loading historical data...
Loading historical data...
Loading historical data...
Loading historical data...
Loading historical data...
Loading historical data...

Documentation

Showing up to 5 results
|